Theta_e
358 354 353 349 349 349 348 349 349 351 350 352 352 350 349 348 347 344 343 352 348 347 349 349 350 352 353 354 352 354 356 355 354 353 351 352 352 352 352 352 351 350 350
364 355 356 354 353 352 351 351 351 353 352 353 351 352 352 353 353 355 350 350 350 347 347 349 349 350 353 354 354 353 353 354 354 353 352 351 351 351 352 352 351 351 349
363 364 354 354 353 357 356 356 356 356 354 354 356 353 353 353 352 355 353 351 348 348 346 347 349 350 351 353 354 355 354 353 353 352 351 351 350 350 351 352 352 351 350
363 365 357 355 356 359 357 358 357 353 353 353 351 349 348 352 355 358 355 355 352 348 349 347 348 349 350 351 354 356 355 354 352 351 350 350 349 349 350 350 351 351 350
360 361 356 356 364 358 358 356 351 353 348 349 346 346 349 349 351 347 353 356 359 357 354 352 348 348 349 351 353 356 357 355 352 350 349 349 349 349 349 349 349 350 350
359 361 355 366 364 363 355 350 356 352 348 347 342 342 347 346 348 348 349 349 351 356 357 358 357 350 347 350 352 354 358 357 354 352 349 348 348 349 349 349 349 349 350
359 360 357 360 360 359 357 353 350 351 343 344 337 336 338 343 345 343 346 349 349 349 352 355 357 355 351 347 348 351 356 359 358 355 350 347 347 349 349 349 349 349 349
360 360 361 358 361 349 355 350 350 340 335 336 329 328 325 328 331 336 338 342 347 348 346 350 353 355 356 354 352 347 352 356 359 358 352 347 347 348 349 349 349 348 348
359 360 361 356 351 348 337 351 345 346 330 330 341 325 321 318 325 331 336 335 339 334 343 347 350 352 356 354 352 352 349 350 356 358 355 350 349 349 349 349 348 348 349
360 359 352 346 350 339 346 341 338 340 339 327 326 327 335 329 321 321 329 333 337 336 341 341 346 349 352 351 354 350 344 344 350 353 354 354 353 352 350 349 349 348 348
348 340 341 341 346 339 343 347 346 345 332 329 324 323 330 324 329 325 321 324 330 333 338 339 337 339 346 351 347 349 341 340 340 343 346 349 352 353 353 351 350 349 349
337 338 334 343 347 345 344 340 345 345 341 336 329 329 322 320 320 323 321 323 323 327 331 334 336 338 340 341 346 340 337 335 334 334 337 340 344 347 351 351 351 351 351
328 344 346 347 339 347 345 345 345 344 343 336 340 328 328 326 325 324 322 320 320 324 326 330 332 335 337 337 340 338 339 333 330 329 331 333 335 339 343 347 350 350 350
332 345 338 338 339 339 343 346 339 339 340 339 339 337 329 328 328 325 323 320 318 319 321 330 329 330 333 338 340 336 337 331 329 327 326 328 329 331 334 337 342 343 345
329 332 333 335 337 338 340 343 338 340 341 340 338 338 336 331 330 329 327 324 320 316 316 322 322 335 334 334 334 334 337 334 330 326 325 324 325 326 328 330 333 336 337
326 326 327 328 331 333 337 341 337 339 339 336 336 336 334 333 332 331 329 327 325 321 318 321 323 330 335 332 332 336 337 333 330 327 326 325 324 324 324 325 328 331 332
323 322 322 323 324 327 330 332 334 337 336 335 335 334 333 334 331 330 329 328 325 324 319 323 325 330 335 334 330 334 336 336 334 325 326 325 323 322 321 322 324 325 327
320 319 319 319 319 320 324 325 325 325 327 330 331 332 330 331 331 331 329 329 327 328 324 322 326 326 327 328 330 336 335 331 334 328 323 323 321 319 318 318 319 320 321
317 318 317 317 317 318 319 320 320 320 322 323 325 327 328 329 328 328 329 327 327 327 327 324 322 327 328 328 326 327 328 332 334 330 325 322 321 320 318 317 316 316 316
316 316 316 315 315 316 316 316 317 319 320 320 322 323 323 324 325 326 326 326 326 325 324 322 323 323 324 326 327 325 325 330 327 329 328 326 325 323 318 317 317 317 314
311 311 311 310 312 312 311 313 311 311 313 314 315 314 315 317 314 314 315 322 324 322 320 319 318 317 318 318 317 319 319 323 324 331 332 334 334 337 334 318 324 320 313
309 308 306 306 306 306 303 303 305 307 308 308 308 310 312 311 311 309 310 310 314 318 319 318 318 316 317 321 323 321 320 319 316 327 327 329 334 335 338 337 322 316 311
306 305 305 304 303 304 300 299 301 304 305 305 306 307 307 309 310 313 310 309 310 309 311 319 318 319 319 322 324 322 321 320 319 323 327 327 334 335 341 341 314 311 309
302 302 303 303 303 303 299 297 298 302 302 303 306 306 309 310 311 313 314 315 317 320 321 320 320 322 324 325 325 324 320 321 325 330 333 325 335 335 342 328 315 310 307
303 303 304 303 303 303 299 297 298 301 301 302 304 305 308 308 306 301 306 310 316 318 317 309 309 308 304 303 311 320 314 316 317 325 332 329 333 335 332 330 319 310 307
304 303 303 304 303 303 300 297 298 301 299 300 304 305 304 305 301 299 311 311 310 315 319 321 322 315 307 310 304 314 316 315 323 321 330 326 330 332 320 324 323 322 311
Wind_Speed
7 8 7 7 7 9 9 8 8 7 8 11 11 11 12 12 12 9 8 9 12 13 16 17 17 18 17 17 18 19 19 19 19 18 18 17 17 16 17 17 16 15 14
6 8 8 8 8 7 7 7 8 7 8 9 10 11 12 12 13 13 11 11 14 17 16 18 19 20 19 19 20 18 20 19 20 19 18 18 18 18 19 19 17 17 16
8 8 8 8 8 7 8 7 7 7 8 9 11 11 11 13 13 13 12 12 13 17 21 21 21 21 22 21 22 20 20 19 20 19 18 18 18 19 19 20 19 19 18
11 9 8 8 8 7 8 7 6 5 7 8 8 8 10 10 12 12 12 12 12 12 13 21 22 23 22 22 23 21 21 20 20 19 19 19 19 19 20 21 19 19 19
13 10 8 8 7 7 6 7 7 7 7 8 10 10 9 10 12 13 14 13 13 13 11 11 20 21 21 21 22 21 21 19 20 21 22 20 20 19 20 21 20 20 20
12 8 6 8 4 5 10 7 6 8 8 9 10 11 9 11 11 12 14 12 13 14 14 14 11 12 21 22 22 22 22 22 24 24 24 21 20 20 20 21 20 21 21
9 10 9 11 7 10 7 5 6 7 8 8 9 10 10 11 12 11 11 12 14 14 14 12 9 10 10 21 21 22 23 23 23 23 22 23 21 20 21 21 21 21 21
11 9 10 10 8 6 7 6 6 7 8 8 9 10 11 10 10 9 9 10 12 12 13 12 12 12 10 9 9 19 20 22 23 23 21 21 20 21 23 22 22 21 21
9 10 13 7 4 5 7 8 7 8 8 7 7 8 8 11 11 10 12 12 12 10 9 12 8 11 11 10 10 10 18 19 22 22 21 23 23 21 23 23 22 22 21
13 10 8 8 6 6 7 6 6 7 6 8 7 8 9 11 12 13 10 10 11 13 13 7 12 11 13 7 10 10 6 14 18 19 18 19 22 23 26 25 23 23 23
8 9 9 8 7 7 8 6 6 6 7 8 8 9 8 10 10 11 12 10 10 10 11 9 8 7 8 8 7 10 9 11 13 14 11 14 17 18 18 19 22 21 21
8 8 9 7 7 7 8 8 8 9 9 8 9 9 10 10 10 10 11 11 12 11 10 10 10 11 10 5 11 9 10 12 13 12 10 12 15 18 17 19 21 20 21
6 7 9 7 8 8 10 10 9 10 10 10 9 11 10 10 10 10 11 11 11 10 10 9 9 9 10 7 11 8 8 10 11 11 12 14 16 18 16 17 19 20 21
7 8 8 8 9 11 11 10 10 11 12 11 14 13 11 10 10 10 10 11 11 11 11 12 9 8 9 8 9 8 10 11 10 9 11 14 15 15 17 15 18 17 19
7 8 10 10 11 11 12 13 12 13 13 13 14 14 13 11 12 12 11 10 12 12 11 10 11 10 8 8 10 11 10 6 7 9 11 13 16 17 15 16 17 18 16
9 10 12 12 12 13 13 14 14 15 16 14 13 16 15 13 14 13 12 11 11 12 14 11 10 10 9 8 9 11 14 13 11 11 13 15 17 16 13 15 16 16 17
11 13 13 14 15 15 14 14 15 17 18 18 17 18 20 18 14 14 13 12 12 12 14 11 11 9 10 11 13 13 12 13 12 17 19 18 17 15 14 14 14 14 14
13 14 16 17 17 17 15 15 17 17 19 19 20 20 22 15 20 18 15 17 15 13 13 17 12 11 14 15 16 13 10 12 12 16 13 14 15 15 15 16 15 14 12
14 15 16 17 17 17 18 17 18 19 18 18 19 19 19 20 20 16 17 16 15 14 16 15 15 12 11 8 12 14 14 13 11 13 12 15 18 17 16 16 15 14 14
15 16 16 17 17 18 18 18 19 18 18 18 18 18 19 19 19 18 18 18 16 16 16 14 14 13 11 9 11 12 12 10 8 12 11 16 13 18 17 16 15 16 15
13 15 15 15 15 14 14 15 15 16 16 16 15 16 16 19 24 21 14 16 17 15 14 14 13 12 12 9 10 9 9 7 6 9 9 14 10 9 9 9 12 16 15
14 14 15 16 17 13 18 16 18 16 16 17 17 18 18 22 24 27 25 25 21 19 19 16 14 14 14 11 11 11 12 12 13 8 15 14 12 8 9 8 13 13 16
14 14 14 16 16 16 17 14 14 17 17 15 17 16 17 16 18 20 21 23 25 26 27 21 22 19 18 15 14 14 14 14 15 14 14 12 9 9 8 6 14 14 15
12 12 13 14 16 14 18 15 18 17 16 18 17 18 20 20 20 20 20 21 21 21 20 17 21 21 19 17 17 14 13 14 16 13 11 12 8 9 7 4 8 12 12
13 14 13 16 17 18 17 16 13 14 15 15 16 16 19 18 23 16 13 16 20 20 16 18 21 17 14 14 15 8 11 12 14 12 9 10 8 7 5 6 6 9 11
15 12 15 17 20 18 18 18 14 10 13 12 15 17 21 21 22 18 15 16 18 21 18 17 15 12 12 15 19 18 13 15 10 6 6 7 6 6 2 3 8 8 7
Wind_Direction
204 202 228 238 223 208 210 225 236 244 241 235 245 250 255 263 271 274 275 203 196 205 218 224 238 242 238 233 235 230 234 235 230 222 219 216 215 218 229 231 236 234 234
205 220 213 225 244 247 254 245 235 247 241 249 255 257 262 264 266 270 273 272 208 209 217 227 228 236 235 230 238 231 235 230 230 231 220 216 213 213 224 227 228 232 232
225 225 228 222 228 232 250 263 272 256 254 253 249 252 256 259 258 257 261 263 267 216 214 220 220 225 234 232 230 225 232 228 226 227 228 221 216 214 222 227 224 226 230
228 205 242 240 232 233 227 227 238 238 233 248 264 275 272 269 269 270 258 260 267 270 232 222 216 217 224 229 238 225 222 224 225 223 224 224 223 217 219 227 225 223 227
211 228 225 231 227 238 250 247 265 284 283 298 292 277 275 274 268 263 258 267 272 270 271 276 217 220 221 224 230 235 230 220 219 221 220 222 224 223 222 226 224 222 225
212 201 244 247 226 245 249 234 219 274 309 307 288 289 290 288 288 292 293 288 275 268 263 259 260 234 223 223 223 222 229 226 217 216 214 221 220 223 225 227 226 222 223
207 210 234 213 203 235 261 301 280 261 261 266 279 275 279 278 279 279 286 277 271 267 269 274 252 249 251 221 224 220 222 228 227 222 226 210 216 218 224 227 224 224 220
204 199 225 253 192 235 204 236 252 273 278 279 278 286 285 289 289 290 297 294 286 274 270 258 270 263 262 272 232 220 225 229 231 229 224 229 213 216 219 227 224 223 220
204 214 219 240 230 229 255 195 222 242 267 285 279 275 292 295 314 311 303 304 304 294 263 284 298 310 285 265 264 232 219 229 232 234 231 225 220 218 221 221 223 220 218
209 209 221 214 226 246 235 229 219 250 256 267 278 276 272 283 287 292 291 288 283 288 291 294 271 261 257 266 262 266 267 228 236 239 240 244 246 228 214 215 220 215 212
215 217 214 229 229 225 254 250 271 226 252 258 275 284 283 280 274 281 293 296 292 290 265 277 309 300 277 247 255 264 235 242 239 246 238 242 253 256 252 245 237 210 210
194 230 239 223 239 246 250 260 233 242 249 270 281 292 282 281 286 286 290 295 301 293 297 309 305 294 292 272 250 245 243 240 238 237 234 246 255 257 252 243 233 225 214
232 195 201 224 250 235 245 264 255 248 250 247 246 255 262 270 277 280 282 287 292 297 292 285 289 304 296 297 300 285 265 229 244 230 228 240 251 255 246 242 236 230 221
313 342 325 305 289 272 266 264 251 250 253 242 241 247 260 265 272 271 276 285 285 284 283 287 284 287 295 286 288 271 271 241 230 240 241 240 249 250 254 251 238 228 220
303 301 317 301 287 279 272 275 267 258 255 249 249 244 240 251 259 262 265 269 276 282 281 285 287 296 284 300 320 317 314 295 163 209 238 249 249 248 237 246 242 228 210
297 292 293 290 285 281 276 268 264 259 253 253 254 253 247 248 244 247 252 257 262 271 276 277 282 293 295 309 300 300 301 291 240 222 226 231 243 249 238 237 237 222 208
301 292 289 287 280 273 269 268 270 272 269 264 254 253 255 252 253 252 253 253 253 258 270 264 259 285 305 311 299 290 274 277 278 226 223 226 237 241 238 233 227 216 217
299 295 288 281 277 276 276 274 273 273 273 271 263 262 258 256 255 254 259 265 263 268 276 278 278 280 275 270 268 269 265 275 282 283 216 225 236 235 223 223 220 208 211
291 288 283 281 283 285 285 281 279 277 277 276 274 271 263 261 263 262 262 261 259 249 242 250 254 243 246 283 298 287 272 262 260 255 247 215 224 234 227 220 218 199 196
300 295 296 296 292 289 286 285 284 283 283 283 283 281 279 278 274 266 263 265 265 265 270 274 271 269 266 267 259 273 267 253 262 287 275 280 218 224 222 211 211 210 200
305 304 300 297 294 294 289 296 313 305 296 290 283 285 286 292 305 300 296 287 266 260 259 260 261 260 258 264 254 269 289 281 271 276 275 271 256 221 217 218 233 213 201
300 295 295 296 292 292 298 308 305 296 293 288 286 284 284 286 282 283 279 271 270 272 264 260 260 256 255 260 264 272 282 283 284 271 270 260 259 253 246 205 206 189 182
294 294 289 284 285 282 280 287 291 289 286 282 279 276 275 270 281 280 273 266 254 250 250 257 258 255 261 260 265 266 271 273 276 266 258 268 274 266 249 259 162 166 175
295 292 291 289 285 283 271 263 264 275 275 271 272 274 270 273 269 270 275 276 273 263 251 242 247 254 255 255 253 260 267 278 270 259 253 261 248 243 231 93 149 154 153
289 293 289 289 283 286 286 274 262 281 281 276 275 277 270 272 270 269 269 274 272 265 256 239 242 243 250 258 252 250 258 254 253 245 233 236 238 222 166 137 115 113 122
287 292 285 286 279 276 277 277 267 272 270 269 271 270 255 257 268 273 271 278 270 266 261 251 236 254 251 257 234 230 234 245 225 254 222 213 214 183 156 78 129 133 112